• In Uzbekistan
  • List of Countries
  • For 7 days
  • Water Temperature
  • Satellite Maps
  • Weather Map
  • Weather Widgets
  • user-avatar
    Login

    Hourly Weather Bizerta

    Today, 16 October, Tuesday

    Time Temperature Precipitation Wind Pressure Humidity
    00:00 +23°C° 0.1 mm 2 mps 759 mmHg 82%
    01:00 +23°C° 0 mm 2 mps 759 mmHg 85%
    02:00 +23°C° 0.1 mm 2 mps 759 mmHg 86%
    03:00 +21°C° 0.1 mm 2 mps 759 mmHg 87%
    04:00 +22°C° 0.1 mm 1 mps 759 mmHg 89%
    05:00 +22°C° 0 mm 1 mps 759 mmHg 89%
    06:00 +22°C° 0 mm 1 mps 759 mmHg 89%
    07:00 +22°C° 0 mm 1 mps 759 mmHg 90%
    08:00 +23°C° 0 mm 1 mps 759 mmHg 82%
    09:00 +25°C° 0 mm 1 mps 759 mmHg 74%
    10:00 +26°C° 0 mm 1 mps 759 mmHg 66%
    11:00 +27°C° 0 mm 1 mps 759 mmHg 60%
    12:00 +29°C° 0 mm 1 mps 759 mmHg 54%
    13:00 +30°C° 0 mm 1 mps 759 mmHg 48%
    14:00 +29°C° 0.2 mm 2 mps 759 mmHg 49%
    15:00 +29°C° 0.2 mm 2 mps 759 mmHg 50%
    16:00 +29°C° 0.2 mm 3 mps 759 mmHg 51%
    17:00 +28°C° 0.5 mm 3 mps 759 mmHg 55%
    18:00 +27°C° 0.5 mm 3 mps 759 mmHg 59%
    19:00 +26°C° 0.5 mm 3 mps 759 mmHg 64%
    20:00 +26°C° 0.1 mm 4 mps 759 mmHg 64%
    21:00 +26°C° 0.1 mm 4 mps 759 mmHg 64%
    22:00 +26°C° 0.1 mm 4 mps 760 mmHg 65%
    23:00 +26°C° 0.1 mm 4 mps 759 mmHg 66%

    Tomorrow, 17 October, Wednesday

    Time Temperature Precipitation Wind Pressure Humidity
    00:00 +25°C° 0.1 mm 5 mps 759 mmHg 67%
    01:00 +25°C° 0.1 mm 5 mps 759 mmHg 67%
    02:00 +25°C° 0.2 mm 4 mps 759 mmHg 70%
    03:00 +25°C° 0.2 mm 4 mps 758 mmHg 72%
    04:00 +23°C° 0.2 mm 4 mps 758 mmHg 74%
    05:00 +23°C° 0.2 mm 4 mps 758 mmHg 75%
    06:00 +23°C° 0.2 mm 5 mps 758 mmHg 77%
    07:00 +23°C° 0.2 mm 5 mps 758 mmHg 78%
    08:00 +25°C° 0.4 mm 5 mps 758 mmHg 72%
    09:00 +26°C° 0.4 mm 6 mps 758 mmHg 66%
    10:00 +28°C° 0.4 mm 6 mps 758 mmHg 60%
    11:00 +28°C° 0.4 mm 7 mps 758 mmHg 58%
    12:00 +29°C° 0.4 mm 7 mps 758 mmHg 57%
    13:00 +29°C° 0.4 mm 8 mps 757 mmHg 55%
    14:00 +29°C° 0.4 mm 8 mps 757 mmHg 58%
    15:00 +28°C° 0.4 mm 8 mps 757 mmHg 61%
    16:00 +27°C° 0.4 mm 9 mps 756 mmHg 64%
    17:00 +27°C° 0.4 mm 9 mps 756 mmHg 68%
    18:00 +26°C° 0.4 mm 8 mps 756 mmHg 72%
    19:00 +24°C° 0.4 mm 8 mps 756 mmHg 77%
    20:00 +24°C° 0.3 mm 8 mps 756 mmHg 77%
    21:00 +24°C° 0.3 mm 8 mps 756 mmHg 78%
    22:00 +24°C° 0.3 mm 9 mps 756 mmHg 78%
    23:00 +24°C° 0.1 mm 9 mps 756 mmHg 79%

    Day after tomorrow, 18 October, Thursday

    Time Temperature Precipitation Wind Pressure Humidity
    00:00 +24°C° 0.1 mm 9 mps 755 mmHg 79%
    01:00 +24°C° 0.1 mm 10 mps 755 mmHg 79%
    02:00 +24°C° 0.3 mm 10 mps 754 mmHg 79%
    03:00 +24°C° 0.3 mm 11 mps 754 mmHg 79%
    04:00 +24°C° 0.3 mm 11 mps 753 mmHg 79%
    05:00 +24°C° 3.2 mm 12 mps 753 mmHg 80%
    06:00 +23°C° 3.2 mm 13 mps 753 mmHg 80%
    07:00 +23°C° 3.2 mm 13 mps 753 mmHg 81%
    08:00 +24°C° 4.5 mm 13 mps 753 mmHg 80%
    09:00 +24°C° 4.5 mm 13 mps 753 mmHg 79%
    10:00 +24°C° 4.5 mm 13 mps 753 mmHg 78%
    11:00 +26°C° 1.1 mm 13 mps 753 mmHg 73%
    12:00 +27°C° 1.1 mm 12 mps 753 mmHg 68%
    13:00 +27°C° 1.1 mm 12 mps 753 mmHg 63%
    14:00 +27°C° 0 mm 11 mps 752 mmHg 63%
    15:00 +27°C° 0 mm 10 mps 752 mmHg 62%
    16:00 +27°C° 0 mm 10 mps 752 mmHg 62%
    17:00 +26°C° 0.8 mm 9 mps 753 mmHg 67%
    18:00 +24°C° 0.8 mm 9 mps 753 mmHg 72%
    19:00 +23°C° 0.8 mm 8 mps 753 mmHg 78%
    20:00 +23°C° 0.7 mm 8 mps 754 mmHg 78%
    21:00 +23°C° 0.7 mm 7 mps 754 mmHg 79%
    22:00 +22°C° 0.7 mm 7 mps 755 mmHg 80%
    23:00 +22°C° 0.1 mm 6 mps 755 mmHg 79%

    19 October, Friday

    Time Temperature Precipitation Wind Pressure Humidity
    00:00 +22°C° 0.1 mm 6 mps 755 mmHg 79%
    01:00 +22°C° 0.1 mm 5 mps 755 mmHg 79%
    02:00 +22°C° 0.1 mm 5 mps 755 mmHg 78%
    03:00 +21°C° 0.1 mm 4 mps 755 mmHg 78%
    04:00 +21°C° 0.1 mm 4 mps 756 mmHg 78%
    05:00 +21°C° 0 mm 4 mps 756 mmHg 78%
    06:00 +21°C° 0 mm 3 mps 756 mmHg 78%
    07:00 +21°C° 0 mm 3 mps 757 mmHg 78%
    08:00 +22°C° 0 mm 3 mps 757 mmHg 71%
    09:00 +25°C° 0 mm 3 mps 758 mmHg 64%
    10:00 +27°C° 0 mm 2 mps 758 mmHg 57%
    11:00 +27°C° 0 mm 3 mps 759 mmHg 54%
    12:00 +28°C° 0 mm 3 mps 759 mmHg 51%
    13:00 +29°C° 0 mm 3 mps 759 mmHg 48%
    14:00 +29°C° 0 mm 3 mps 759 mmHg 50%
    15:00 +29°C° 0 mm 4 mps 759 mmHg 52%
    16:00 +28°C° 0 mm 4 mps 759 mmHg 53%
    17:00 +27°C° 0 mm 4 mps 760 mmHg 60%
    18:00 +26°C° 0 mm 4 mps 760 mmHg 67%
    19:00 +25°C° 0 mm 5 mps 761 mmHg 73%
    20:00 +25°C° 0 mm 4 mps 761 mmHg 76%
    21:00 +23°C° 0 mm 4 mps 762 mmHg 80%
    22:00 +23°C° 0 mm 4 mps 762 mmHg 83%
    23:00 +23°C° 0 mm 4 mps 762 mmHg 84%

    20 October, Saturday

    Time Temperature Precipitation Wind Pressure Humidity
    00:00 +22°C° 0 mm 4 mps 762 mmHg 86%
    01:00 +22°C° 0 mm 3 mps 762 mmHg 87%
    02:00 +22°C° 0 mm 3 mps 762 mmHg 88%
    03:00 +22°C° 0 mm 3 mps 762 mmHg 89%
    04:00 +21°C° 0 mm 3 mps 762 mmHg 91%
    05:00 +21°C° 0 mm 3 mps 762 mmHg 91%
    06:00 +21°C° 0 mm 3 mps 763 mmHg 92%
    07:00 +21°C° 0 mm 3 mps 763 mmHg 92%
    08:00 +22°C° 0 mm 3 mps 763 mmHg 85%
    09:00 +25°C° 0 mm 3 mps 763 mmHg 77%
    10:00 +26°C° 0 mm 3 mps 763 mmHg 70%
    11:00 +27°C° 0 mm 3 mps 763 mmHg 65%
    12:00 +28°C° 0 mm 3 mps 763 mmHg 60%
    13:00 +29°C° 0 mm 4 mps 763 mmHg 55%
    14:00 +29°C° 0 mm 4 mps 763 mmHg 55%
    15:00 +29°C° 0 mm 4 mps 762 mmHg 55%
    16:00 +29°C° 0 mm 5 mps 762 mmHg 56%
    17:00 +28°C° 0 mm 5 mps 762 mmHg 61%
    18:00 +26°C° 0 mm 5 mps 762 mmHg 66%
    19:00 +25°C° 0 mm 5 mps 763 mmHg 72%
    20:00 +25°C° 0 mm 4 mps 763 mmHg 75%
    21:00 +23°C° 0 mm 4 mps 763 mmHg 79%
    22:00 +23°C° 0 mm 4 mps 763 mmHg 82%
    23:00 +23°C° 0 mm 4 mps 763 mmHg 84%

    21 October, Sunday

    Time Temperature Precipitation Wind Pressure Humidity
    00:00 +22°C° 0 mm 3 mps 763 mmHg 86%
    01:00 +22°C° 0 mm 3 mps 762 mmHg 88%
    02:00 +22°C° 0 mm 3 mps 762 mmHg 89%
    03:00 +22°C° 0 mm 3 mps 762 mmHg 90%
    04:00 +21°C° 0 mm 3 mps 762 mmHg 91%
    05:00 +21°C° 0 mm 2 mps 762 mmHg 91%
    06:00 +21°C° 0 mm 2 mps 762 mmHg 91%
    07:00 +21°C° 0 mm 2 mps 762 mmHg 91%
    08:00 +24°C° 0 mm 2 mps 762 mmHg 83%
    09:00 +25°C° 0 mm 2 mps 762 mmHg 75%
    10:00 +27°C° 0 mm 2 mps 763 mmHg 66%
    11:00 +28°C° 0 mm 1 mps 762 mmHg 61%
    12:00 +29°C° 0 mm 1 mps 762 mmHg 56%
    13:00 +30°C° 0 mm 1 mps 762 mmHg 51%
    14:00 +29°C° 0.1 mm 2 mps 762 mmHg 54%
    15:00 +29°C° 0.1 mm 3 mps 761 mmHg 56%
    16:00 +28°C° 0.1 mm 4 mps 761 mmHg 58%
    17:00 +27°C° 0.1 mm 4 mps 761 mmHg 66%
    18:00 +26°C° 0.1 mm 4 mps 762 mmHg 74%
    19:00 +23°C° 0.1 mm 4 mps 762 mmHg 82%
    20:00 +24°C° 0 mm 3 mps 762 mmHg 85%
    21:00 +24°C° 0 mm 3 mps 762 mmHg 87%
    22:00 +22°C° 0 mm 3 mps 762 mmHg 89%
    23:00 +22°C° 0 mm 3 mps 762 mmHg 90%
    Show more